{"data":{"norad_id":65830,"epoch":"2026-05-25T03:35:29.251104Z","epoch_age_seconds":55917,"freshness":"FRESH","line1":"1 65830U 25221H   26145.14964411  .00010445  00000+0  36420-3 0  9993","line2":"2 65830  53.1571  93.6294 0001144  86.3392 273.7740 15.30208261 37749","mean_motion":15.30208261,"eccentricity":0.0001144,"inclination_deg":53.1571,"raan_deg":93.6294,"arg_perigee_deg":86.3392,"mean_anomaly_deg":273.774,"bstar":0.0003642,"rev_number":3774,"period_min":94.104837668237,"perigee_km":474.40638301837,"apogee_km":475.97442432833,"semimajor_km":6853.3274036733,"source":"CELESTRAK","updated_at":"2026-05-25T13:38:20.943009Z"}}